Weather in Moss Town

Bahamas     23°34′17″N   75°53′32″W
temp.,
°C
wind,
m/s
gust,
m/s
humid.,
%
clouds,
%
prec.,
mm/h
press.,
hPa
HPBL,
m
27 october, wed
wed2723:00+28wsw44750 0.0 1013609
02:00+28wsw45760 0.0 1011648
05:00+28wsw56770 0.0 1011789
08:00+28wsw56764 0.0 1012820
11:00+28wsw66779 0.7 1014808
14:00+28wsw67752 0.7 1012853
17:00+28wsw66775 0.0 1011778
20:00+28w45775 0.4 1012439
28 october, thu
thu2823:00+28w347695 0.9 1013320
02:00+28w347384 1.9 1012540
05:00+28wsw3373100 0.3 1012488
08:00+28sw4573100 0.3 1013595
11:00+28sw5572100 0.0 1014798
14:00+28sw5572100 0.0 1012828
17:00+28wsw4573100 0.0 1011789
20:00+28sw3473100 0.0 1012596
29 october, fri
fri2923:00+28s347499 0.0 1013522
02:00+28s667590 0.0 1011593
05:00+28ssw7775100 0.0 1011858
08:00+28sw7876100 0.0 1012982
11:00+28sw887635 0.1 1013988
14:00+28sw8976100 0.1 1011990
17:00+28sw7876100 0.0 1010833
20:00+28sw6776100 0.3 1011685
30 october, sat
sat3023:00+28ssw677885 1.4 1011510
02:00+28sw897894 4.8 1010800
05:00+28sw7873100 1.4 1010995
08:00+28sw6770100 1.4 1011938
11:00+28sw6774100 0.2 1012889
14:00+28sw6774100 1.1 1010895
17:00+28wsw557379 0.0 1010891
20:00+27w347566 0.1 1011747
31 october, sun
sun3123:00+27w44795 2.6 1012368
02:00+27w44753 4.6 1012405
05:00+27nw226767 0.7 1012688
08:00+27nnw116499 0.8 1014707
11:00+27n21661 0.0 1015544
14:00+27nnw22675 0.1 1015690
17:00+28n33665 0.0 1014837
20:00+27nne33675 0.0 1016832